Simultaneous Nadir Overpasses (SNOs) Predictions

Prediction of SNOs between AQUA and METOP-B Satellite Orbit:

Table of predicted SNOs for the next 14.0 days since TLE Epoch: 3/25/2023
Index Date (AQUA) Time (AQUA) Lat,Lon (AQUA) SZA (AQUA ) Date (METOP-B) Time (METOP-B) Lat,Lon (METOP-B) SZA (METOP-B ) Distance(km) Time Diff (sec)
1 03/25/2023 13:19:59 74.19, -24.18 72.34 03/25/2023 13:18:47 74.12, -24.85 72.30 21.93 72
2 03/25/2023 14:09:26 -74.34, 143.12 107.52 03/25/2023 14:09:24 -74.35, 143.06 107.50 2.23 2
3 03/25/2023 14:58:54 74.45, -49.50 72.59 03/25/2023 15:00:02 74.44, -49.38 72.57 3.67 68
4 03/28/2023 08:02:44 -74.36,-125.24 108.58 03/28/2023 08:02:21 -74.37,-125.14 108.57 3.13 23
5 03/28/2023 08:52:11 74.43, 42.25 71.48 03/28/2023 08:53:00 74.41, 42.30 71.46 2.59 49
6 03/31/2023 01:55:57 -74.31, -33.40 109.71 03/31/2023 01:55:18 -74.32, -33.50 109.69 3.40 39
7 03/31/2023 02:45:24 74.38, 134.08 70.36 03/31/2023 02:45:56 74.41, 134.05 70.38 2.89 32
8 04/02/2023 19:49:10 -74.33, 58.28 110.75 04/02/2023 19:48:14 -74.35, 58.34 110.72 2.99 56
9 04/02/2023 20:38:37 74.41,-134.27 69.33 04/02/2023 20:38:53 74.39,-134.24 69.30 2.81 16
10 04/02/2023 21:28:15 -75.10, 31.62 109.95 04/02/2023 21:29:20 -75.10, 35.04 110.05 97.71 65
11 04/05/2023 13:42:20 -74.33, 150.02 111.81 04/05/2023 13:41:11 -74.32, 150.01 111.81 1.30 69
12 04/05/2023 14:31:47 74.41, -42.54 68.27 04/05/2023 14:31:49 74.40, -42.45 68.26 3.25 2



Historial Predications of SNOs between AQUA and METOP-B
